When you browse on this site, cookies collect data to enhance your experience and personalize the content and advertising you see.
Visit our Privacy Policy to learn more. By continuing to use the site, you agree to this use of cookies and data.
  • în România
  • Lista ţărilor
  • Pe 7 zile
  • Temperatura apei
  • Hartă satelitară
  • Meteo pe hartă
  • Widget-uri
  • user-avatar
    Intrare

    Meteo pe oră la Grazhdanskoe

    Astăzi, 17 Noiembrie, Sâmbătă

    Timp Temperatura Precipitaţii Vânt Presiune Umiditate
    00:00 +4°C° 0 mm 4 m/s 731 mmHg 90%
    01:00 +4°C° 0 mm 4 m/s 731 mmHg 90%
    02:00 +4°C° 0 mm 4 m/s 732 mmHg 90%
    03:00 +3°C° 0 mm 2 m/s 732 mmHg 87%
    04:00 +2°C° 0 mm 3 m/s 732 mmHg 88%
    05:00 +2°C° 0 mm 3 m/s 732 mmHg 89%
    06:00 +2°C° 0 mm 3 m/s 732 mmHg 90%
    07:00 +2°C° 0.8 mm 3 m/s 732 mmHg 90%
    08:00 +2°C° 0.8 mm 3 m/s 732 mmHg 91%
    09:00 +3°C° 0.8 mm 3 m/s 733 mmHg 92%
    10:00 +4°C° 1.1 mm 2 m/s 733 mmHg 92%
    11:00 +4°C° 1.1 mm 2 m/s 733 mmHg 93%
    12:00 +4°C° 1.1 mm 2 m/s 733 mmHg 94%
    13:00 +5°C° 0.1 mm 1 m/s 733 mmHg 94%
    14:00 +5°C° 0.1 mm 1 m/s 734 mmHg 94%
    15:00 +6°C° 0.1 mm 1 m/s 734 mmHg 94%
    16:00 +5°C° 0 mm 1 m/s 734 mmHg 94%
    17:00 +5°C° 0 mm 1 m/s 734 mmHg 94%
    18:00 +5°C° 0 mm 1 m/s 735 mmHg 95%
    19:00 +5°C° 0 mm 1 m/s 734 mmHg 94%
    20:00 +5°C° 0 mm 1 m/s 734 mmHg 93%
    21:00 +5°C° 0 mm 1 m/s 734 mmHg 92%
    22:00 +5°C° 0.1 mm 1 m/s 734 mmHg 92%
    23:00 +5°C° 0.1 mm 1 m/s 734 mmHg 92%

    Mâine, 18 Noiembrie, Duminică

    Timp Temperatura Precipitaţii Vânt Presiune Umiditate
    00:00 +5°C° 0.1 mm 1 m/s 734 mmHg 91%
    01:00 +5°C° 0.1 mm 1 m/s 734 mmHg 91%
    02:00 +5°C° 0.1 mm 1 m/s 734 mmHg 90%
    03:00 +4°C° 0.1 mm 0 m/s 734 mmHg 90%
    04:00 +4°C° 0.2 mm 0 m/s 734 mmHg 89%
    05:00 +5°C° 0.2 mm 1 m/s 733 mmHg 89%
    06:00 +4°C° 0.2 mm 1 m/s 733 mmHg 89%
    07:00 +5°C° 0 mm 1 m/s 733 mmHg 87%
    08:00 +5°C° 0 mm 1 m/s 733 mmHg 85%
    09:00 +6°C° 0 mm 1 m/s 733 mmHg 83%
    10:00 +7°C° 0 mm 1 m/s 733 mmHg 79%
    11:00 +8°C° 0 mm 1 m/s 732 mmHg 75%
    12:00 +9°C° 0 mm 1 m/s 732 mmHg 71%
    13:00 +10°C° 0 mm 1 m/s 732 mmHg 72%
    14:00 +10°C° 0 mm 1 m/s 732 mmHg 73%
    15:00 +9°C° 0 mm 2 m/s 732 mmHg 73%
    16:00 +8°C° 0 mm 2 m/s 732 mmHg 78%
    17:00 +7°C° 0 mm 2 m/s 732 mmHg 83%
    18:00 +6°C° 0 mm 2 m/s 732 mmHg 88%
    19:00 +6°C° 0 mm 1 m/s 732 mmHg 89%
    20:00 +6°C° 0 mm 1 m/s 732 mmHg 89%
    21:00 +5°C° 0 mm 1 m/s 732 mmHg 90%
    22:00 +5°C° 0 mm 1 m/s 732 mmHg 89%
    23:00 +5°C° 0 mm 1 m/s 732 mmHg 89%

    Poimâine, 19 Noiembrie, Luni

    Timp Temperatura Precipitaţii Vânt Presiune Umiditate
    00:00 +5°C° 0 mm 1 m/s 732 mmHg 88%
    01:00 +5°C° 0 mm 1 m/s 732 mmHg 87%
    02:00 +5°C° 0 mm 1 m/s 732 mmHg 86%
    03:00 +4°C° 0 mm 1 m/s 732 mmHg 85%
    04:00 +3°C° 0 mm 2 m/s 732 mmHg 85%
    05:00 +3°C° 0 mm 2 m/s 732 mmHg 85%
    06:00 +3°C° 0 mm 2 m/s 732 mmHg 85%
    07:00 +3°C° 0 mm 3 m/s 732 mmHg 83%
    08:00 +3°C° 0 mm 3 m/s 732 mmHg 82%
    09:00 +4°C° 0 mm 4 m/s 733 mmHg 81%
    10:00 +5°C° 0 mm 4 m/s 732 mmHg 78%
    11:00 +6°C° 0 mm 4 m/s 732 mmHg 76%
    12:00 +7°C° 0 mm 5 m/s 731 mmHg 73%
    13:00 +7°C° 0 mm 5 m/s 731 mmHg 74%
    14:00 +7°C° 0 mm 5 m/s 731 mmHg 75%
    15:00 +7°C° 0 mm 5 m/s 731 mmHg 75%
    16:00 +6°C° 0 mm 5 m/s 731 mmHg 78%
    17:00 +5°C° 0 mm 5 m/s 731 mmHg 80%
    18:00 +5°C° 0 mm 5 m/s 732 mmHg 83%
    19:00 +5°C° 0 mm 5 m/s 731 mmHg 82%
    20:00 +3°C° 0 mm 5 m/s 731 mmHg 82%
    21:00 +3°C° 0 mm 5 m/s 731 mmHg 81%
    22:00 +3°C° 0 mm 5 m/s 731 mmHg 81%
    23:00 +3°C° 0 mm 5 m/s 731 mmHg 80%

    20 Noiembrie, Marţi

    Timp Temperatura Precipitaţii Vânt Presiune Umiditate
    00:00 +4°C° 0 mm 4 m/s 731 mmHg 80%
    01:00 +4°C° 0 mm 4 m/s 731 mmHg 81%
    02:00 +4°C° 0 mm 3 m/s 731 mmHg 82%
    03:00 +4°C° 0 mm 3 m/s 731 mmHg 82%
    04:00 +4°C° 0.2 mm 3 m/s 732 mmHg 84%
    05:00 +4°C° 0.2 mm 3 m/s 732 mmHg 85%
    06:00 +5°C° 0.2 mm 2 m/s 732 mmHg 86%
    07:00 +6°C° 0.2 mm 2 m/s 732 mmHg 86%
    08:00 +6°C° 0.2 mm 2 m/s 732 mmHg 85%
    09:00 +6°C° 0.2 mm 2 m/s 732 mmHg 84%
    10:00 +7°C° 0.1 mm 2 m/s 732 mmHg 82%
    11:00 +8°C° 0.1 mm 2 m/s 732 mmHg 79%
    12:00 +9°C° 0.1 mm 2 m/s 732 mmHg 76%
    13:00 +10°C° 0 mm 2 m/s 731 mmHg 74%
    14:00 +10°C° 0 mm 2 m/s 731 mmHg 72%
    15:00 +12°C° 0 mm 2 m/s 731 mmHg 70%
    16:00 +10°C° 0 mm 2 m/s 731 mmHg 73%
    17:00 +9°C° 0 mm 2 m/s 731 mmHg 75%
    18:00 +9°C° 0 mm 2 m/s 731 mmHg 78%
    19:00 +10°C° 0 mm 1 m/s 731 mmHg 77%
    20:00 +10°C° 0 mm 1 m/s 731 mmHg 75%
    21:00 +10°C° 0 mm 1 m/s 731 mmHg 74%
    22:00 +9°C° 0 mm 1 m/s 731 mmHg 74%
    23:00 +9°C° 0 mm 1 m/s 731 mmHg 74%

    21 Noiembrie, Miercuri

    Timp Temperatura Precipitaţii Vânt Presiune Umiditate
    00:00 +9°C° 0 mm 1 m/s 731 mmHg 74%
    01:00 +9°C° 0 mm 1 m/s 730 mmHg 75%
    02:00 +9°C° 0 mm 1 m/s 730 mmHg 76%
    03:00 +9°C° 0 mm 1 m/s 730 mmHg 77%
    04:00 +9°C° 0 mm 1 m/s 730 mmHg 77%
    05:00 +9°C° 0 mm 1 m/s 729 mmHg 78%
    06:00 +9°C° 0 mm 1 m/s 729 mmHg 78%
    07:00 +9°C° 0.2 mm 1 m/s 729 mmHg 78%
    08:00 +9°C° 0.2 mm 0 m/s 729 mmHg 77%
    09:00 +9°C° 0.2 mm 0 m/s 728 mmHg 77%
    10:00 +10°C° 0.1 mm 0 m/s 728 mmHg 75%
    11:00 +11°C° 0.1 mm 0 m/s 728 mmHg 72%
    12:00 +11°C° 0.1 mm 0 m/s 727 mmHg 69%
    13:00 +12°C° 0 mm 1 m/s 727 mmHg 71%
    14:00 +12°C° 0 mm 1 m/s 727 mmHg 73%
    15:00 +12°C° 0 mm 1 m/s 727 mmHg 74%
    16:00 +12°C° 0.1 mm 1 m/s 727 mmHg 80%
    17:00 +11°C° 0.1 mm 1 m/s 727 mmHg 86%
    18:00 +9°C° 0.1 mm 0 m/s 727 mmHg 91%
    19:00 +8°C° 0.1 mm 0 m/s 727 mmHg 92%
    20:00 +8°C° 0.1 mm 0 m/s 726 mmHg 92%
    21:00 +8°C° 0.1 mm 0 m/s 726 mmHg 93%
    22:00 +9°C° 0.3 mm 1 m/s 726 mmHg 93%
    23:00 +9°C° 0.3 mm 1 m/s 726 mmHg 93%

    22 Noiembrie, Joi

    Timp Temperatura Precipitaţii Vânt Presiune Umiditate
    00:00 +9°C° 0.3 mm 1 m/s 726 mmHg 93%
    01:00 +8°C° 0.7 mm 1 m/s 726 mmHg 93%
    02:00 +8°C° 0.7 mm 1 m/s 726 mmHg 93%
    03:00 +6°C° 0.7 mm 2 m/s 726 mmHg 93%
    04:00 +6°C° 1.4 mm 2 m/s 726 mmHg 93%
    05:00 +6°C° 1.4 mm 2 m/s 726 mmHg 93%
    06:00 +5°C° 1.4 mm 2 m/s 726 mmHg 93%
    07:00 +5°C° 1.5 mm 2 m/s 726 mmHg 93%
    08:00 +4°C° 1.5 mm 2 m/s 726 mmHg 93%
    09:00 +4°C° 1.5 mm 2 m/s 726 mmHg 93%
    10:00 +3°C° 1.4 mm 2 m/s 726 mmHg 94%
    11:00 +3°C° 1.4 mm 2 m/s 726 mmHg 95%
    12:00 +3°C° 1.4 mm 2 m/s 726 mmHg 97%
    13:00 +3°C° 1 mm 2 m/s 726 mmHg 97%
    14:00 +3°C° 1 mm 2 m/s 726 mmHg 97%
    15:00 +3°C° 1 mm 1 m/s 726 mmHg 97%
    16:00 +3°C° 1 mm 1 m/s 726 mmHg 97%
    17:00 +3°C° 1 mm 1 m/s 726 mmHg 97%
    18:00 +3°C° 1 mm 1 m/s 727 mmHg 97%
    19:00 +3°C° 0.7 mm 1 m/s 727 mmHg 96%
    20:00 +1°C° 0.7 mm 2 m/s 727 mmHg 96%
    21:00 +1°C° 0.7 mm 2 m/s 727 mmHg 96%
    22:00 +1°C° 0.6 mm 2 m/s 727 mmHg 96%
    23:00 +1°C° 0.6 mm 2 m/s 727 mmHg 96%
    Arată mai mult